This demonstration page uses our WeatherBlox Daily Observations layout. Learn more.

Left ArrowRight Arrow

39.12711, -84.51439

Hourly Observations for December 20, 2018

Temp ( °F °C ) Dew Point ( °F °C ) Humidity (%) Winds ( mph kmh ) Pressure ( in mb ) Visibility ( mi km ) Precip ( " mm )
12:53 am 00:53 Clear 38 3.3 34 1.1 86 86 SW 3 6 29.88 1012 10 16 0.00 0.00
1:53 am 01:53 Mostly Cloudy 38 3.3 36 2.2 93 93 S 3 6 29.88 1012 10 16 0.00 0.00
2:53 am 02:53 Partly Cloudy 39 3.9 36 2.2 89 89 Calm 29.87 1011 10 16 0.00 0.00
3:53 am 03:53 Cloudy 39 3.9 36 2.2 89 89 Calm 29.86 1011 10 16 0.00 0.00
4:53 am 04:53 Cloudy with Light Rain 40 4.4 38 3.3 93 93 SSW 5 7 29.85 1011 8 13 0.04 1.02
5:53 am 05:53 Cloudy with Light Rain 40 4.4 38 3.3 93 93 Calm 29.85 1011 7 11 0.04 1.02
6:53 am 06:53 Cloudy 40 4.4 39 3.9 97 97 NNW 3 6 29.84 1011 8 13 0.01 0.25
7:53 am 07:53 Cloudy with Light Rain 43 6.1 42 5.6 97 97 SE 6 9 29.84 1010 7 11 0.02 0.51
8:53 am 08:53 Cloudy with Light Rain 43 6.1 42 5.6 97 97 NNE 3 6 29.83 1010 5 8 0.01 0.25
9:53 am 09:53 Cloudy with Light Rain 45 7.2 44 6.7 97 97 Calm 29.81 1010 7 11 0.01 0.25
10:53 am 10:53 Cloudy 47 8.3 44 6.7 90 90 W 3 6 29.79 1009 8 13 0.00 0.03
11:53 am 11:53 Cloudy 49 9.4 45 7.2 86 86 Calm 29.74 1007 10 16 0.00 0.00
12:53 pm 12:53 Cloudy with Light Rain 48 8.9 45 7.2 89 89 ESE 5 7 29.71 1006 10 16 0.00 0.03
1:53 pm 13:53 Cloudy 49 9.4 46 7.8 90 90 NE 5 7 29.67 1005 10 16 0.00 0.03
2:18 pm 14:18 Cloudy with Light Rain 49 9.4 46 7.8 90 90 NE 3 6 29.68 1005 10 16 0.00 0.03
2:53 pm 14:53 Cloudy with Light Rain 49 9.4 46 7.8 90 90 NE 6 9 29.65 1004 10 16 0.01 0.25
3:53 pm 15:53 Cloudy with Light Rain 48 8.9 45 7.2 89 89 NNE 5 7 29.61 1003 10 16 0.01 0.25
4:53 pm 16:53 Cloudy with Light Rain 47 8.3 45 7.2 93 93 NNE 6 9 29.59 1002 10 16 0.01 0.25
5:53 pm 17:53 Cloudy with Light Rain 47 8.3 44 6.7 90 90 NNE 8 13 29.57 1001 7 11 0.03 0.76
6:32 pm 18:32 Cloudy with Light Rain 46 7.8 43 6.1 89 89 NNE 10 17 29.59 1002 6 10 0.04 1.02
6:53 pm 18:53 Cloudy with Light Rain 46 7.8 43 6.1 89 89 NNE 8 13 29.56 1001 7 11 0.07 1.78
7:01 pm 19:01 Cloudy with Light Rain 46 7.8 43 6.1 89 89 NNE 7 11 29.59 1002 6 10 0.01 0.25
7:11 pm 19:11 Cloudy with Rain 46 7.8 43 6.1 89 89 NNE 12 19 29.59 1002 6 10 0.03 0.76
8:53 pm 20:53 Cloudy with Light Rain 45 7.2 42 5.6 90 90 N 9 15 29.50 999 5 8 0.06 1.52
9:12 pm 21:12 Cloudy with Light Rain 45 7.2 42 5.6 90 90 N 7 11 29.53 1000 5 8 0.02 0.51
9:53 pm 21:53 Cloudy with Light Rain 45 7.2 42 5.6 90 90 N 6 9 29.48 998 6 10 0.09 2.29
10:03 pm 22:03 Cloudy with Light Rain 44 6.7 42 5.6 93 93 N 6 9 29.50 999 6 10 0.01 0.25
10:53 pm 22:53 Cloudy with Light Rain 44 6.7 42 5.6 93 93 N 6 9 29.46 998 6 10 0.05 1.27
11:53 pm 23:53 Cloudy with Light Rain 44 6.7 42 5.6 93 93 N 8 13 29.44 997 5 8 0.05 1.27

Powered by AerisWeather